TimePDT,TemperatureF,Dew PointF,Humidity,Sea Level PressureIn,VisibilityMPH,Wind Direction,Wind SpeedMPH,Gust SpeedMPH,PrecipitationIn,Events,Conditions,WindDirDegrees,DateUTC
12:15 AM,55.4,55.4,100,29.97,10.0,Calm,Calm,-,N/A,,Unknown,0,2013-08-17 07:15:00
12:35 AM,55.4,55.4,100,29.97,10.0,NW,3.5,-,N/A,,Unknown,310,2013-08-17 07:35:00
12:55 AM,57.2,57.2,100,29.97,10.0,Calm,Calm,-,N/A,,Unknown,0,2013-08-17 07:55:00
1:15 AM,55.4,55.4,100,29.97,10.0,Calm,Calm,-,N/A,,Unknown,0,2013-08-17 08:15:00
1:35 AM,57.2,57.2,100,29.97,10.0,Calm,Calm,-,N/A,,Unknown,0,2013-08-17 08:35:00
1:55 AM,57.2,57.2,100,29.96,10.0,Calm,Calm,-,N/A,,Unknown,0,2013-08-17 08:55:00
2:15 AM,55.4,55.4,100,29.96,10.0,Calm,Calm,-,N/A,,Unknown,0,2013-08-17 09:15:00
2:35 AM,55.4,55.4,100,29.96,10.0,Calm,Calm,-,N/A,,Unknown,0,2013-08-17 09:35:00
2:55 AM,50.0,50.0,100,29.95,5.0,Calm,Calm,-,N/A,,Mist,0,2013-08-17 09:55:00
3:15 AM,51.8,51.8,100,29.95,8.0,Calm,Calm,-,N/A,,Unknown,0,2013-08-17 10:15:00
3:35 AM,53.6,53.6,100,29.96,10.0,Calm,Calm,-,N/A,,Clear,0,2013-08-17 10:35:00
3:55 AM,55.4,55.4,100,29.96,10.0,Calm,Calm,-,N/A,,Clear,0,2013-08-17 10:55:00
4:15 AM,55.4,55.4,100,29.95,10.0,Calm,Calm,-,N/A,,Clear,0,2013-08-17 11:15:00
4:35 AM,55.4,55.4,100,29.96,10.0,Calm,Calm,-,N/A,,Clear,0,2013-08-17 11:35:00
4:55 AM,55.4,55.4,100,29.96,10.0,Calm,Calm,-,N/A,,Clear,0,2013-08-17 11:55:00
5:15 AM,55.4,55.4,100,29.96,10.0,Calm,Calm,-,N/A,,Clear,0,2013-08-17 12:15:00
5:35 AM,55.4,55.4,100,29.96,10.0,Calm,Calm,-,N/A,,Clear,0,2013-08-17 12:35:00
5:55 AM,51.8,51.8,100,29.96,7.0,Calm,Calm,-,N/A,,Clear,0,2013-08-17 12:55:00
6:15 AM,51.8,51.8,100,29.97,10.0,Calm,Calm,-,N/A,,Clear,0,2013-08-17 13:15:00
6:35 AM,53.6,53.6,100,29.97,10.0,Calm,Calm,-,N/A,,Clear,0,2013-08-17 13:35:00
6:55 AM,51.8,51.8,100,29.97,1.8,Calm,Calm,-,N/A,,Clear,0,2013-08-17 13:55:00
7:15 AM,51.8,51.8,100,29.98,5.0,Calm,Calm,-,N/A,,Clear,0,2013-08-17 14:15:00
7:35 AM,53.6,53.6,100,29.98,10.0,Calm,Calm,-,N/A,,Clear,0,2013-08-17 14:35:00
7:55 AM,55.4,55.4,100,29.98,9.0,Calm,Calm,-,N/A,,Clear,0,2013-08-17 14:55:00
8:15 AM,57.2,57.2,100,29.98,10.0,Calm,Calm,-,N/A,,Clear,0,2013-08-17 15:15:00
8:35 AM,59.0,57.2,94,29.99,10.0,Calm,Calm,-,N/A,,Clear,0,2013-08-17 15:35:00
8:55 AM,62.6,55.4,77,29.99,-9999.0,Calm,Calm,-,N/A,,Clear,0,2013-08-17 15:55:00
9:15 AM,64.4,55.4,73,29.99,-9999.0,NE,3.5,-,N/A,,Clear,40,2013-08-17 16:15:00
9:35 AM,66.2,55.4,68,29.99,-9999.0,Calm,Calm,-,N/A,,Clear,0,2013-08-17 16:35:00
9:55 AM,64.4,55.4,73,29.98,-9999.0,Calm,Calm,-,N/A,,Clear,0,2013-08-17 16:55:00
10:15 AM,66.2,55.4,68,29.98,-9999.0,SSE,4.6,-,N/A,,Clear,150,2013-08-17 17:15:00
10:35 AM,68.0,57.2,68,29.98,-9999.0,Calm,Calm,-,N/A,,Clear,0,2013-08-17 17:35:00
10:55 AM,68.0,55.4,64,29.98,-9999.0,East,3.5,-,N/A,,Clear,100,2013-08-17 17:55:00
11:15 AM,71.6,57.2,60,29.98,-9999.0,East,4.6,-,N/A,,Clear,100,2013-08-17 18:15:00
11:35 AM,73.4,59.0,61,29.97,-9999.0,ESE,4.6,-,N/A,,Clear,120,2013-08-17 18:35:00
11:55 AM,75.2,59.0,57,29.96,-9999.0,SE,5.8,-,N/A,,Clear,140,2013-08-17 18:55:00
12:15 PM,73.4,60.8,65,29.96,-9999.0,SE,9.2,-,N/A,,Clear,130,2013-08-17 19:15:00
12:35 PM,73.4,59.0,61,29.96,-9999.0,SE,10.4,-,N/A,,Clear,130,2013-08-17 19:35:00
12:55 PM,73.4,59.0,61,29.95,-9999.0,SSE,5.8,-,N/A,,Clear,160,2013-08-17 19:55:00
1:15 PM,75.2,59.0,57,29.95,-9999.0,South,5.8,-,N/A,,Clear,170,2013-08-17 20:15:00
1:35 PM,80.6,53.6,39,29.94,-9999.0,WSW,8.1,-,N/A,,Partly Cloudy,240,2013-08-17 20:35:00
1:55 PM,82.4,55.4,39,29.93,-9999.0,WNW,3.5,-,N/A,,Clear,290,2013-08-17 20:55:00
2:15 PM,84.2,53.6,35,29.92,-9999.0,SSW,5.8,-,N/A,,Clear,210,2013-08-17 21:15:00
2:35 PM,84.2,55.4,37,29.91,-9999.0,SW,13.8,-,N/A,,Clear,220,2013-08-17 21:35:00
2:55 PM,82.4,55.4,39,29.91,-9999.0,SW,11.5,-,N/A,,Clear,220,2013-08-17 21:55:00
3:15 PM,84.2,55.4,37,29.90,-9999.0,WSW,10.4,19.6,N/A,,Clear,250,2013-08-17 22:15:00
3:35 PM,82.4,55.4,39,29.89,-9999.0,SW,13.8,-,N/A,,Clear,220,2013-08-17 22:35:00
3:55 PM,82.4,55.4,39,29.87,-9999.0,SW,9.2,-,N/A,,Clear,220,2013-08-17 22:55:00
4:15 PM,82.4,55.4,39,29.87,-9999.0,SW,15.0,-,N/A,,Clear,220,2013-08-17 23:15:00
4:35 PM,82.4,57.2,42,29.87,-9999.0,SW,13.8,19.6,N/A,,Partly Cloudy,230,2013-08-17 23:35:00
4:55 PM,78.8,57.2,47,29.87,-9999.0,SW,16.1,20.7,N/A,,Partly Cloudy,230,2013-08-17 23:55:00
5:15 PM,80.6,57.2,45,29.87,-9999.0,SW,12.7,19.6,N/A,,Clear,230,2013-08-18 00:15:00
5:35 PM,77.0,57.2,50,29.85,-9999.0,SSW,17.3,21.9,N/A,,Clear,210,2013-08-18 00:35:00
5:55 PM,77.0,57.2,50,29.85,-9999.0,SSW,11.5,18.4,N/A,,Clear,200,2013-08-18 00:55:00
6:15 PM,77.0,57.2,50,29.85,-9999.0,SW,11.5,19.6,N/A,,Clear,220,2013-08-18 01:15:00
6:35 PM,77.0,57.2,50,29.85,-9999.0,SSW,5.8,-,N/A,,Clear,210,2013-08-18 01:35:00
6:55 PM,75.2,57.2,53,29.85,-9999.0,SW,6.9,-,N/A,,Clear,220,2013-08-18 01:55:00
7:15 PM,73.4,57.2,57,29.85,-9999.0,SSW,5.8,-,N/A,,Clear,210,2013-08-18 02:15:00
7:35 PM,71.6,55.4,57,29.85,-9999.0,SW,8.1,-,N/A,,Clear,220,2013-08-18 02:35:00
7:55 PM,69.8,55.4,60,29.85,-9999.0,SSW,3.5,-,N/A,,Clear,200,2013-08-18 02:55:00
8:15 PM,69.8,55.4,60,29.85,-9999.0,SSE,3.5,-,N/A,,Clear,160,2013-08-18 03:15:00
8:35 PM,66.2,55.4,68,29.86,-9999.0,SSE,5.8,-,N/A,,Clear,160,2013-08-18 03:35:00
8:55 PM,66.2,57.2,73,29.87,-9999.0,South,5.8,-,N/A,,Unknown,190,2013-08-18 03:55:00
9:15 PM,64.4,55.4,73,29.87,-9999.0,Calm,Calm,-,N/A,,Unknown,0,2013-08-18 04:15:00
9:35 PM,64.4,55.4,73,29.88,-9999.0,Calm,Calm,-,N/A,,Unknown,0,2013-08-18 04:35:00
9:55 PM,64.4,57.2,77,29.88,-9999.0,ESE,3.5,-,N/A,,Unknown,120,2013-08-18 04:55:00
10:15 PM,62.6,57.2,82,29.88,-9999.0,Calm,Calm,-,N/A,,Unknown,0,2013-08-18 05:15:00
10:35 PM,62.6,57.2,82,29.89,10.0,Calm,Calm,-,N/A,,Unknown,0,2013-08-18 05:35:00
10:55 PM,62.6,57.2,82,29.88,10.0,WSW,3.5,-,N/A,,Unknown,240,2013-08-18 05:55:00
11:15 PM,62.6,55.4,77,29.89,10.0,Calm,Calm,-,N/A,,Clear,0,2013-08-18 06:15:00
11:35 PM,60.8,57.2,88,29.88,10.0,Calm,Calm,-,N/A,,Clear,0,2013-08-18 06:35:00
11:55 PM,59.0,57.2,94,29.88,10.0,Calm,Calm,-,N/A,,Clear,0,2013-08-18 06:55:00